Location: Chuathbaluk
(61.5726°N, 159.2454°W)
Time: 06:26:07
(UTC+00:00)

Vanguard 1 - All Passes

Search period start: 27 November 2020 00:00
Search period end: 07 December 2020 00:00
Orbit: 650 x 3833 km, 34.2° (Epoch: 26 November)

Date Brightness Start Highest point End Pass type
(mag) Time Alt. Az. Time Alt. Az. Time Alt. Az.
27 Nov - 16:48:38 10° S 16:50:59 11° SSE 16:53:36 10° SE visible
27 Nov - 19:03:59 10° SSW 19:09:45 15° S 19:17:10 10° SSE daylight
27 Nov - 21:26:08 10° SW 21:29:23 11° SSW 21:32:59 10° SSW daylight
28 Nov - 17:08:04 10° S 17:11:04 12° SSE 17:14:33 10° SE visible
28 Nov - 19:24:55 10° SSW 19:30:01 14° S 19:36:20 10° SSE daylight
29 Nov - 17:28:05 10° S 17:31:13 12° SSE 17:34:52 10° SSE visible
29 Nov - 19:46:31 10° SSW 19:50:17 12° SSW 19:54:40 10° S daylight
30 Nov - 17:48:36 10° S 17:51:25 11° S 17:54:39 10° SSE visible
01 Dec - 18:09:55 10° S 18:11:39 11° S 18:13:31 10° S visible
